NO4D Weather Reports


Display with metric or nautical units.
time (UTC)temp
F
wind
direction
speed
MPH
gust
MPH
rain 1hr
in
rain 24hr
in
rain mn
in
humidity
%
barometer
mb
20260508231011 67 151 0.0 1.0 0.00 0.00 0.00 65 1014.3
20260508230508 67 188 1.0 1.0 0.00 0.00 0.00 64 1014.3
20260508230004 67 199 0.0 0.0 0.00 0.00 0.00 64 1014.3
20260508225502 67 208 0.0 1.0 0.00 0.00 0.00 63 1014.2
20260508224959 68 201 0.0 0.0 0.00 0.00 0.00 63 1014.3
20260508224456 68 200 0.0 1.0 0.00 0.00 0.00 64 1014.3
20260508223953 68 212 3.0 4.0 0.00 0.00 0.00 61 1014.6
20260508223451 68 204 1.0 1.0 0.00 0.00 0.00 61 1014.4
20260508222948 68 214 2.0 3.0 0.00 0.00 0.00 62 1014.7
20260508222446 68 153 2.0 3.0 0.00 0.00 0.00 61 1014.5
20260508221942 68 223 4.0 7.0 0.00 0.00 0.00 60 1014.4
20260508221438 68 195 1.0 1.0 0.00 0.00 0.00 60 1014.3
20260508220934 68 204 2.0 3.0 0.00 0.00 0.00 60 1014.4
20260508220431 69 216 3.0 4.0 0.00 0.00 0.00 59 1014.4
20260508215927 69 189 0.0 1.0 0.00 0.00 0.00 60 1014.3
20260508215424 69 197 0.0 0.0 0.00 0.00 0.00 59 1014.2
20260508214921 69 200 4.0 5.0 0.00 0.00 0.00 58 1014.4
20260508214419 69 202 1.0 1.0 0.00 0.00 0.00 59 1014.5
20260508213914 69 173 0.0 1.0 0.00 0.00 0.00 60 1014.6
20260508213412 69 165 0.0 0.0 0.00 0.00 0.00 59 1014.4
20260508212907 69 109 3.0 4.0 0.00 0.00 0.00 56 1014.6
20260508212404 69 168 0.0 1.0 0.00 0.00 0.00 57 1014.3
20260508211900 69 194 3.0 4.0 0.00 0.00 0.00 56 1014.6
20260508211355 70 197 1.0 1.0 0.00 0.00 0.00 58 1014.5
20260508210854 69 227 2.0 3.0 0.00 0.00 0.00 57 1014.4
20260508210350 70 146 4.0 5.0 0.00 0.00 0.00 57 1014.3
20260508205846 70 142 2.0 3.0 0.00 0.00 0.00 58 1014.4
20260508205343 70 136 3.0 4.0 0.00 0.00 0.00 55 1014.4
20260508204839 70 243 4.0 7.0 0.00 0.00 0.00 54 1014.4
20260508204336 71 221 4.0 7.0 0.00 0.00 0.00 54 1014.5
20260508203832 71 134 5.0 5.0 0.00 0.00 0.00 53 1014.3
20260508203329 70 178 1.0 1.0 0.00 0.00 0.00 55 1014.5
20260508202824 70 109 5.0 5.0 0.00 0.00 0.00 54 1014.7
20260508202322 71 176 2.0 4.0 0.00 0.00 0.00 54 1014.7
20260508201819 71 217 1.0 3.0 0.00 0.00 0.00 54 1014.7
20260508201316 71 220 1.0 3.0 0.00 0.00 0.00 55 1014.9
20260508200812 70 175 6.0 10.0 0.00 0.00 0.00 56 1015.0
20260508200309 71 264 5.0 7.0 0.00 0.00 0.00 51 1014.9
20260508195805 71 261 6.0 7.0 0.00 0.00 0.00 51 1014.9
20260508195305 70 167 3.0 4.0 0.00 0.00 0.00 52 1015.0
20260508194758 71 134 3.0 4.0 0.00 0.00 0.00 52 1015.2
20260508194255 71 118 5.0 5.0 0.00 0.00 0.00 53 1015.4
20260508193752 73 205 7.0 12.0 0.00 0.00 0.00 53 1015.0
20260508193249 72 293 3.0 4.0 0.00 0.00 0.00 49 1015.4
20260508192745 72 157 2.0 3.0 0.00 0.00 0.00 52 1015.5
20260508192242 72 198 3.0 4.0 0.00 0.00 0.00 54 1015.5
20260508191740 72 193 3.0 3.0 0.00 0.00 0.00 52 1015.5
20260508191237 73 234 3.0 3.0 0.00 0.00 0.00 51 1015.5
20260508190734 73 138 3.0 3.0 0.00 0.00 0.00 51 1015.5
20260508190229 71 155 0.0 0.0 0.00 0.00 0.00 52 1015.9
20260508185727 71 234 6.0 7.0 0.00 0.00 0.00 50 1016.1
20260508185224 71 243 5.0 7.0 0.00 0.00 0.00 52 1016.1
20260508184721 69 57 2.0 3.0 0.00 0.00 0.00 56 1016.1
20260508184218 68 118 5.0 7.0 0.00 0.00 0.00 55 1016.3
20260508183715 69 174 4.0 5.0 0.00 0.00 0.00 54 1016.4
20260508183211 71 307 3.0 4.0 0.00 0.00 0.00 51 1016.5
20260508182707 71 214 2.0 3.0 0.00 0.00 0.00 54 1016.4
20260508182204 71 130 3.0 3.0 0.00 0.00 0.00 53 1016.6
20260508181700 70 133 5.0 5.0 0.00 0.00 0.00 52 1016.5
20260508181157 69 167 6.0 10.0 0.00 0.00 0.00 54 1017.0
20260508180653 69 211 2.0 3.0 0.00 0.00 0.00 55 1016.7
20260508180151 69 152 2.0 3.0 0.00 0.00 0.00 53 1016.7
20260508175647 70 176 5.0 7.0 0.00 0.00 0.00 58 1016.7
20260508175144 71 153 6.0 7.0 0.00 0.00 0.00 51 1016.9
20260508174642 70 115 1.0 3.0 0.00 0.00 0.00 58 1016.9
20260508174138 69 166 2.0 3.0 0.00 0.00 0.00 57 1017.1
20260508173635 69 231 4.0 5.0 0.00 0.00 0.00 54 1017.0
20260508173131 68 199 0.0 1.0 0.00 0.00 0.00 54 1017.3
20260508172628 69 228 4.0 5.0 0.00 0.00 0.00 56 1017.0
20260508172125 69 256 7.0 8.0 0.00 0.00 0.00 54 1017.2
20260508171621 68 201 3.0 4.0 0.00 0.00 0.00 55 1017.3
20260508171118 69 248 3.0 4.0 0.00 0.00 0.00 57 1017.6
20260508170615 69 60 3.0 4.0 0.00 0.00 0.00 53 1017.9
20260508170113 68 111 1.0 1.0 0.00 0.00 0.00 53 1017.6
20260508165609 67 204 4.0 4.0 0.00 0.00 0.00 56 1017.6
20260508165106 66 136 3.0 4.0 0.00 0.00 0.00 56 1017.5
20260508164603 66 154 1.0 1.0 0.00 0.00 0.00 58 1017.9
20260508164100 66 254 3.0 4.0 0.00 0.00 0.00 59 1017.7
20260508163557 66 65 3.0 4.0 0.00 0.00 0.00 56 1018.0
20260508163054 66 289 5.0 8.0 0.00 0.00 0.00 59 1018.0
20260508162551 65 189 1.0 1.0 0.00 0.00 0.00 60 1018.1
20260508162048 67 252 4.0 5.0 0.00 0.00 0.00 58 1018.1
20260508161545 68 203 1.0 1.0 0.00 0.00 0.00 55 1018.1
20260508161042 67 249 1.0 1.0 0.00 0.00 0.00 55 1018.1
20260508160540 66 138 3.0 4.0 0.00 0.00 0.00 60 1018.1
20260508160037 68 137 8.0 10.0 0.00 0.00 0.00 56 1018.4
20260508155534 67 141 3.0 3.0 0.00 0.00 0.00 58 1018.5
20260508155031 66 127 2.0 3.0 0.00 0.00 0.00 54 1018.5
20260508154528 67 150 3.0 3.0 0.00 0.00 0.00 56 1018.5
20260508154025 66 117 5.0 7.0 0.00 0.00 0.00 56 1018.6
20260508153522 67 169 2.0 3.0 0.00 0.00 0.00 56 1018.7
20260508153018 68 124 3.0 4.0 0.00 0.00 0.00 56 1018.6
20260508152515 67 148 0.0 0.0 0.00 0.00 0.00 56 1018.6
20260508152011 65 227 3.0 4.0 0.00 0.00 0.00 59 1018.6
20260508151508 65 211 1.0 1.0 0.00 0.00 0.00 56 1018.5
20260508151004 65 154 8.0 11.0 0.00 0.00 0.00 59 1018.6
20260508150501 64 154 1.0 3.0 0.00 0.00 0.00 61 1018.7
20260508145956 65 68 5.0 7.0 0.00 0.00 0.00 58 1018.7
20260508145454 64 112 1.0 1.0 0.00 0.00 0.00 62 1018.7
20260508144950 65 118 4.0 5.0 0.00 0.00 0.00 62 1018.6
20260508144448 65 220 3.0 4.0 0.00 0.00 0.00 60 1018.4
20260508143945 65 126 5.0 5.0 0.00 0.00 0.00 64 1018.4
20260508143443 66 156 2.0 4.0 0.00 0.00 0.00 63 1018.7
20260508142938 65 193 1.0 3.0 0.00 0.00 0.00 62 1018.6
20260508142436 64 71 1.0 3.0 0.00 0.00 0.00 65 1018.6
20260508141932 64 167 1.0 1.0 0.00 0.00 0.00 67 1018.7
20260508141429 64 232 3.0 4.0 0.00 0.00 0.00 64 1018.6
20260508140927 64 114 3.0 4.0 0.00 0.00 0.00 64 1018.9
20260508140424 64 187 2.0 3.0 0.00 0.00 0.00 65 1018.8
20260508135919 63 117 3.0 4.0 0.00 0.00 0.00 65 1018.9
20260508135416 63 129 3.0 4.0 0.00 0.00 0.00 68 1019.0
20260508134913 64 127 3.0 3.0 0.00 0.00 0.00 64 1019.0
20260508134409 63 62 2.0 3.0 0.00 0.00 0.00 68 1019.1
20260508133906 62 138 2.0 3.0 0.00 0.00 0.00 69 1019.3
20260508133404 62 50 3.0 4.0 0.00 0.00 0.00 67 1019.0
20260508132900 62 79 2.0 3.0 0.00 0.00 0.00 67 1018.9
20260508132358 62 76 3.0 3.0 0.00 0.00 0.00 71 1018.8
20260508131855 61 73 2.0 3.0 0.00 0.00 0.00 71 1018.9
20260508131350 60 54 2.0 3.0 0.00 0.00 0.00 72 1018.6
20260508130847 61 18 2.0 3.0 0.00 0.00 0.00 73 1018.8
20260508130344 60 81 1.0 1.0 0.00 0.00 0.00 76 1018.5
20260508125840 60 85 2.0 4.0 0.00 0.00 0.00 76 1018.7
20260508125336 59 60 1.0 1.0 0.00 0.00 0.00 78 1018.6
20260508124834 58 358 2.0 3.0 0.00 0.00 0.00 79 1018.6
20260508124331 58 36 2.0 3.0 0.00 0.00 0.00 79 1018.4
20260508123829 57 87 1.0 1.0 0.00 0.00 0.00 80 1018.5
20260508123328 57 86 1.0 1.0 0.00 0.00 0.00 81 1018.4
20260508122824 56 78 1.0 3.0 0.00 0.00 0.00 83 1018.5
20260508122320 56 52 1.0 1.0 0.00 0.00 0.00 83 1018.4
20260508121818 56 1 3.0 3.0 0.00 0.00 0.00 82 1018.4
20260508121316 56 332 4.0 4.0 0.00 0.00 0.00 82 1018.3
20260508120813 56 90 0.0 1.0 0.00 0.00 0.00 81 1018.3
20260508120311 56 102 2.0 3.0 0.00 0.00 0.00 83 1018.4
20260508115808 55 73 0.0 1.0 0.00 0.00 0.00 85 1018.3
20260508115306 53 136 1.0 1.0 0.00 0.00 0.00 88 1018.2
20260508114802 53 118 0.0 1.0 0.00 0.00 0.00 88 1017.9
20260508114259 52 135 0.0 0.0 0.00 0.00 0.00 89 1017.7
20260508113755 52 135 0.0 0.0 0.00 0.00 0.00 90 1017.9
20260508113254 52 135 0.0 1.0 0.00 0.00 0.00 90 1017.8
20260508112750 52 135 0.0 0.0 0.00 0.00 0.00 90 1017.6
20260508112247 52 114 0.0 0.0 0.00 0.00 0.00 90 1017.4
20260508111743 52 2 0.0 0.0 0.00 0.00 0.00 90 1017.3
20260508111241 51 343 1.0 1.0 0.00 0.00 0.00 90 1017.1
20260508110739 51 31 2.0 3.0 0.00 0.00 0.00 90 1017.1
20260508110236 51 142 0.0 0.0 0.00 0.00 0.00 91 1017.0
20260508105735 51 141 0.0 0.0 0.00 0.00 0.00 91 1017.0
20260508105232 51 168 0.0 0.0 0.00 0.00 0.00 91 1017.0
20260508104730 51 196 0.0 0.0 0.00 0.00 0.00 91 1017.0
20260508104227 51 199 0.0 0.0 0.00 0.00 0.00 90 1016.9
20260508103724 51 208 0.0 0.0 0.00 0.00 0.00 91 1016.7
20260508103221 51 204 0.0 0.0 0.00 0.00 0.00 91 1016.6
20260508102718 51 188 0.0 0.0 0.00 0.00 0.00 91 1016.5
20260508102216 51 189 0.0 0.0 0.00 0.00 0.00 91 1016.4
20260508101713 51 193 0.0 0.0 0.00 0.00 0.00 91 1016.5
20260508101211 51 191 0.0 0.0 0.00 0.00 0.00 91 1016.3
20260508100708 51 194 0.0 0.0 0.00 0.00 0.00 91 1016.1
20260508100206 51 190 0.0 0.0 0.00 0.00 0.00 90 1016.0
20260508095702 51 190 0.0 0.0 0.00 0.00 0.00 90 1016.1
20260508095159 51 190 0.0 0.0 0.00 0.00 0.00 90 1016.0
20260508094656 51 189 0.0 0.0 0.00 0.00 0.00 90 1016.0
20260508094153 51 195 0.0 0.0 0.00 0.00 0.00 90 1015.9
20260508093650 51 178 0.0 0.0 0.00 0.00 0.00 90 1015.9
20260508093148 51 171 0.0 0.0 0.00 0.00 0.00 91 1016.0
20260508092644 51 198 0.0 0.0 0.00 0.00 0.00 91 1015.8
20260508092143 51 201 0.0 0.0 0.00 0.00 0.00 90 1015.9
20260508091640 51 295 2.0 3.0 0.00 0.00 0.00 91 1015.8
20260508091137 51 89 0.0 1.0 0.00 0.00 0.00 92 1016.0
20260508090635 50 145 0.0 0.0 0.00 0.00 0.00 94 1015.3
20260508090132 50 136 0.0 0.0 0.00 0.00 0.00 94 1015.9
20260508085628 50 147 0.0 0.0 0.00 0.00 0.00 95 1015.7
20260508085125 50 149 0.0 0.0 0.00 0.00 0.00 95 1015.9
20260508084621 50 149 0.0 0.0 0.00 0.00 0.00 94 1015.7
20260508084119 50 142 0.0 0.0 0.00 0.00 0.00 94 1015.7
20260508083616 50 149 0.0 0.0 0.00 0.00 0.00 94 1015.4
20260508083113 50 152 0.0 0.0 0.00 0.00 0.00 94 1015.5
20260508082609 50 198 0.0 0.0 0.00 0.00 0.00 94 1015.5
20260508082106 50 196 0.0 0.0 0.00 0.00 0.00 94 1015.4
20260508081604 50 178 0.0 0.0 0.00 0.00 0.00 94 1015.3
20260508081100 50 170 0.0 0.0 0.00 0.00 0.00 93 1015.5
20260508080558 50 170 0.0 0.0 0.00 0.00 0.00 93 1015.4
20260508080055 50 169 0.0 0.0 0.00 0.00 0.00 92 1015.4
20260508075551 51 170 0.0 0.0 0.00 0.00 0.00 92 1015.4
20260508075049 51 173 0.0 0.0 0.00 0.00 0.00 92 1015.4
20260508074546 51 175 0.0 0.0 0.00 0.00 0.00 92 1015.4
20260508074043 51 180 0.0 0.0 0.00 0.00 0.00 92 1015.3
20260508073540 51 181 0.0 0.0 0.00 0.00 0.00 92 1015.4
20260508073038 51 180 0.0 0.0 0.00 0.00 0.00 92 1015.2
20260508072533 51 165 0.0 0.0 0.00 0.00 0.00 91 1015.4
20260508072031 51 168 0.0 0.0 0.00 0.00 0.00 91 1015.3
20260508071529 52 180 0.0 0.0 0.00 0.00 0.00 90 1015.2
20260508071026 52 187 0.0 0.0 0.00 0.00 0.00 90 1015.1
20260508070524 52 187 0.0 0.0 0.00 0.00 0.00 89 1015.2
20260508070022 52 187 0.0 0.0 0.00 0.00 0.00 89 1014.9
20260508065519 52 187 0.0 0.0 0.00 0.00 0.00 89 1014.8
20260508065017 52 187 0.0 0.0 0.00 0.00 0.00 88 1015.1
20260508064514 52 187 0.0 0.0 0.00 0.00 0.00 89 1015.1
20260508064012 52 186 0.0 0.0 0.00 0.00 0.00 89 1014.9
20260508063509 52 186 0.0 0.0 0.00 0.00 0.00 88 1014.7
20260508063007 52 186 0.0 0.0 0.00 0.00 0.00 88 1014.9
20260508062505 52 186 0.0 0.0 0.00 0.00 0.00 88 1014.7
20260508062001 53 187 0.0 0.0 0.00 0.00 0.00 87 1014.9
20260508061459 52 186 0.0 0.0 0.00 0.00 0.00 86 1014.7
20260508060955 53 187 0.0 0.0 0.00 0.00 0.00 86 1014.8
20260508060452 53 186 0.0 0.0 0.00 0.00 0.00 86 1014.8
20260508055948 53 160 0.0 0.0 0.00 0.00 0.00 85 1015.2
20260508055446 53 147 0.0 0.0 0.00 0.00 0.00 84 1015.1
20260508054942 53 147 0.0 0.0 0.00 0.00 0.00 83 1015.2
20260508054439 54 150 0.0 0.0 0.00 0.00 0.00 82 1015.0
20260508053936 54 180 0.0 0.0 0.00 0.00 0.00 81 1015.1
20260508053433 54 180 0.0 0.0 0.00 0.00 0.00 81 1015.1
20260508052931 53 170 0.0 0.0 0.00 0.00 0.00 82 1014.8
20260508052428 54 170 0.0 0.0 0.00 0.00 0.00 81 1015.0
20260508051924 54 170 0.0 0.0 0.00 0.00 0.00 80 1015.1
20260508051420 55 170 0.0 0.0 0.00 0.00 0.00 79 1014.9
20260508050916 55 171 0.0 0.0 0.00 0.00 0.00 78 1014.8
20260508050413 56 165 0.0 0.0 0.00 0.00 0.00 76 1015.0
20260508045909 57 204 0.0 1.0 0.00 0.00 0.00 75 1014.8
20260508045407 57 209 0.0 0.0 0.00 0.00 0.00 73 1014.6
20260508044904 57 200 0.0 0.0 0.00 0.00 0.00 73 1014.3
20260508044401 57 177 0.0 0.0 0.00 0.00 0.00 73 1014.6
20260508043856 57 166 0.0 0.0 0.00 0.00 0.00 73 1014.6
20260508043354 57 78 0.0 0.0 0.00 0.00 0.00 73 1014.8
20260508042850 58 80 0.0 0.0 0.00 0.00 0.00 71 1014.6
20260508042348 59 64 0.0 0.0 0.00 0.00 0.00 70 1014.4
20260508041845 59 66 0.0 0.0 0.00 0.00 0.00 70 1014.6
20260508041341 58 25 0.0 1.0 0.00 0.00 0.00 70 1014.2
20260508040838 59 1 1.0 3.0 0.00 0.00 0.00 70 1014.4
20260508040335 59 339 0.0 1.0 0.00 0.00 0.00 69 1014.3
20260508035832 59 349 0.0 1.0 0.00 1.41 1.41 70 1014.5
20260508035330 58 358 0.0 1.0 0.00 1.41 1.41 70 1014.6
20260508034827 59 346 1.0 1.0 0.00 1.41 1.41 70 1014.7
20260508034324 59 28 1.0 1.0 0.00 1.41 1.41 70 1014.5
20260508033820 59 344 0.0 1.0 0.00 1.41 1.41 70 1014.4
20260508033319 59 341 2.0 3.0 0.00 1.41 1.41 69 1014.4
20260508032816 59 58 0.0 1.0 0.00 1.41 1.41 69 1014.4
20260508032313 59 25 1.0 1.0 0.00 1.41 1.41 69 1014.6
20260508031810 59 330 2.0 3.0 0.00 1.41 1.41 68 1014.5
20260508031306 59 331 2.0 3.0 0.00 1.41 1.41 68 1014.4
20260508030802 59 46 2.0 3.0 0.00 1.41 1.41 67 1014.2
20260508030300 59 1 4.0 4.0 0.00 1.41 1.41 67 1014.3
20260508025756 59 73 2.0 4.0 0.00 1.41 1.41 68 1014.3
20260508025254 60 62 3.0 4.0 0.00 1.41 1.41 68 1014.4
20260508024750 60 13 4.0 4.0 0.00 1.41 1.41 68 1014.1
20260508024247 60 354 1.0 1.0 0.00 1.41 1.41 68 1014.2
20260508023744 60 95 2.0 3.0 0.00 1.41 1.41 68 1014.0
20260508023241 60 317 2.0 3.0 0.00 1.41 1.41 68 1014.0
20260508022737 60 20 3.0 4.0 0.00 1.41 1.41 68 1013.7
20260508022234 60 342 1.0 1.0 0.00 1.41 1.41 69 1013.7
20260508021730 60 349 2.0 3.0 0.00 1.41 1.41 68 1013.7
20260508021226 60 74 1.0 1.0 0.00 1.41 1.41 68 1013.7
20260508020723 61 19 2.0 3.0 0.00 1.41 1.41 67 1013.8
20260508020220 61 83 0.0 0.0 0.00 1.41 1.41 68 1013.7
20260508015717 61 340 2.0 3.0 0.00 1.41 1.41 67 1013.4
20260508015215 61 25 0.0 1.0 0.00 1.41 1.41 67 1013.2
20260508014711 62 336 6.0 8.0 0.00 1.41 1.41 67 1013.0
20260508014208 62 326 2.0 4.0 0.00 1.41 1.41 68 1013.1
20260508013704 62 315 3.0 4.0 0.00 1.41 1.41 68 1012.9
20260508013200 62 31 3.0 4.0 0.00 1.41 1.41 68 1013.0
20260508012658 62 320 2.0 3.0 0.00 1.41 1.41 70 1012.9
20260508012155 62 336 4.0 5.0 0.00 1.41 1.41 69 1012.5
20260508011653 62 7 6.0 8.0 0.00 1.41 1.41 70 1012.4
20260508011150 62 26 4.0 4.0 0.00 1.41 1.41 71 1012.5
20260508010647 62 26 1.0 3.0 0.00 1.41 1.41 72 1012.4
20260508010145 62 351 3.0 3.0 0.00 1.41 1.41 72 1012.2
20260508005642 62 338 3.0 4.0 0.00 1.41 1.41 72 1012.2
20260508005138 62 354 5.0 5.0 0.00 1.41 1.41 72 1012.3
20260508004634 62 351 2.0 3.0 0.00 1.41 1.41 72 1012.1
20260508004130 63 335 5.0 5.0 0.00 1.41 1.41 72 1011.8
20260508003627 63 298 5.0 5.0 0.00 1.41 1.41 71 1011.8
20260508003125 63 342 5.0 5.0 0.00 1.41 1.41 71 1011.4
20260508002621 64 22 2.0 3.0 0.00 1.41 1.41 71 1011.5
20260508002119 64 338 5.0 7.0 0.00 1.41 1.41 71 1011.6
20260508001614 64 353 2.0 4.0 0.00 1.41 1.41 70 1011.5
20260508001110 64 343 5.0 5.0 0.00 1.41 1.41 69 1011.4
20260508000606 65 318 3.0 4.0 0.00 1.41 1.41 70 1011.0
20260508000104 65 40 4.0 5.0 0.00 1.41 1.41 70 1011.0
20260507235600 65 12 1.0 3.0 0.00 1.41 1.41 71 1010.9
20260507235058 66 331 4.0 5.0 0.00 1.41 1.41 70 1010.8
20260507234554 66 12 3.0 4.0 0.00 1.41 1.41 70 1010.9
20260507234050 66 269 2.0 3.0 0.00 1.41 1.41 70 1010.8
20260507233547 67 17 6.0 8.0 0.00 1.41 1.41 69 1010.4
20260507233047 68 336 4.0 7.0 0.00 1.41 1.41 69 1010.3
20260507232542 68 353 2.0 3.0 0.00 1.41 1.41 70 1010.1
20260507232039 69 5 4.0 5.0 0.00 1.41 1.41 69 1010.0
20260507231536 70 342 5.0 7.0 0.00 1.41 1.41 69 1009.8